FW2359 Weather Reports


Display with metric or nautical units.
time (UTC)temp
F
wind
direction
speed
MPH
gust
MPH
rain 1hr
in
rain 24hr
in
rain mn
in
humidity
%
barometer
mb
20260508064530 58 252 9.0 15.0 0.00 0.08 0.08 46 1016.4
20260508063030 59 248 8.0 17.0 0.00 0.08 0.08 45 1016.4
20260508060029 60 248 9.0 16.0 0.00 0.08 0.08 44 1016.4
20260508054531 60 250 10.0 18.0 0.00 0.08 0.08 44 1016.4
20260508053031 61 244 10.0 16.0 0.00 0.08 0.08 43 1016.5
20260508051529 61 249 10.0 17.0 0.00 0.08 0.08 43 1016.4
20260508050030 61 248 11.0 18.0 0.00 0.08 0.08 42 1016.2
20260508044531 61 249 10.0 18.0 0.00 0.08 0.08 41 1016.1
20260508043030 62 249 9.0 15.0 0.00 0.08 0.08 40 1016.2
20260508040032 63 247 10.0 22.0 0.00 0.08 0.08 35 1015.8
20260508034605 63 250 10.0 19.0 0.00 0.08 0.08 33 1015.6
20260508033030 64 253 10.0 18.0 0.00 0.08 0.08 30 1015.4
20260508030033 66 250 15.0 23.0 0.00 0.08 0.08 24 1015.2
20260508024530 67 252 16.0 26.0 0.00 0.08 0.08 23 1015.0
20260508020108 69 244 13.0 25.0 0.00 0.08 0.08 22 1014.8
20260508014531 70 248 12.0 24.0 0.00 0.08 0.08 22 1014.9
20260508011529 70 248 10.0 21.0 0.00 0.08 0.08 23 1015.3
20260508010031 70 259 12.0 23.0 0.00 0.08 0.08 22 1015.4
20260508003029 70 258 11.0 20.0 0.00 0.08 0.08 21 1015.6
20260508001532 71 258 12.0 23.0 0.00 0.08 0.08 20 1015.5
20260508000032 71 259 14.0 23.0 0.00 0.08 0.08 19 1015.5
20260507234533 71 257 14.0 24.0 0.00 0.08 0.08 19 1015.4
20260507233032 71 253 16.0 26.0 0.00 0.08 0.08 21 1015.5
20260507231531 71 256 16.0 25.0 0.00 0.08 0.08 23 1015.6
20260507224529 71 254 16.0 25.0 0.00 0.08 0.08 29 1015.9
20260507223029 70 256 15.0 24.0 0.00 0.10 0.08 30 1015.9
20260507221607 70 257 15.0 25.0 0.00 0.12 0.08 31 1016.0
20260507220035 71 255 16.0 24.0 0.00 0.12 0.08 31 1016.1
20260507214533 71 255 15.0 26.0 0.00 0.12 0.08 31 1016.2
20260507213035 71 257 13.0 24.0 0.00 0.12 0.08 33 1016.4
20260507211541 70 251 13.0 26.0 0.00 0.12 0.08 34 1016.5
20260507210031 68 259 14.0 24.0 0.00 0.12 0.08 37 1016.6
20260507204607 68 260 15.0 25.0 0.00 0.12 0.08 37 1016.7
20260507203032 67 260 15.0 28.0 0.00 0.12 0.08 39 1016.8
20260507201532 67 261 15.0 24.0 0.00 0.12 0.08 38 1017.1
20260507194529 66 258 15.0 26.0 0.00 0.12 0.08 38 1017.5
20260507193107 65 254 14.0 23.0 0.00 0.12 0.08 40 1017.7
20260507191530 65 256 13.0 24.0 0.00 0.12 0.08 40 1017.8
20260507190029 64 261 12.0 20.0 0.00 0.12 0.08 42 1018.0
20260507184533 63 261 13.0 23.0 0.00 0.12 0.08 43 1018.1
20260507183041 63 255 13.0 23.0 0.00 0.14 0.08 45 1018.3
20260507181532 62 254 14.0 24.0 0.00 0.14 0.08 46 1018.2
20260507180030 61 259 13.0 25.0 0.00 0.14 0.08 50 1018.4
20260507174606 61 266 12.0 24.0 0.00 0.14 0.08 52 1018.5
20260507173029 60 255 14.0 24.0 0.00 0.14 0.08 53 1018.6
20260507170031 58 255 11.0 19.0 0.00 0.14 0.08 59 1018.9
20260507163137 57 255 14.0 25.0 0.00 0.14 0.08 62 1018.9
20260507163128 56 256 14.0 26.0 0.00 0.14 0.08 64 1019.1
20260507153032 55 240 12.0 24.0 0.00 0.14 0.08 69 1019.7
20260507151531 54 243 10.0 20.0 0.00 0.14 0.08 71 1019.7
20260507150038 54 232 7.0 14.0 0.00 0.14 0.08 73 1019.8
20260507144647 53 232 5.0 13.0 0.00 0.14 0.08 75 1019.8
20260507143030 52 237 5.0 14.0 0.00 0.14 0.08 76 1019.7
20260507141530 52 261 11.0 35.0 0.00 0.14 0.08 76 1019.7
20260507140031 52 252 11.0 23.0 0.00 0.14 0.08 77 1019.4
20260507133029 52 245 14.0 24.0 0.00 0.14 0.08 79 1019.0
20260507131530 52 236 12.0 25.0 0.00 0.14 0.08 79 1018.9
20260507130030 52 229 10.0 23.0 0.00 0.14 0.08 78 1018.9
20260507124530 53 233 11.0 19.0 0.00 0.14 0.08 77 1018.9
20260507123030 53 243 14.0 36.0 0.00 0.14 0.08 76 1018.7
20260507121607 53 242 14.0 25.0 0.00 0.14 0.08 76 1018.6
20260507114536 54 244 15.0 25.0 0.00 0.14 0.08 76 1018.5
20260507111531 54 243 13.0 30.0 0.00 0.14 0.08 76 1018.5
20260507110105 54 244 11.0 34.0 0.00 0.14 0.08 76 1018.4
20260507104530 55 236 12.0 23.0 0.00 0.14 0.08 76 1018.2
20260507103033 55 238 13.0 30.0 0.00 0.14 0.08 76 1018.1
20260507101531 55 238 15.0 31.0 0.00 0.14 0.08 76 1018.1
20260507100043 55 242 15.0 35.0 0.00 0.14 0.08 75 1018.0
20260507094530 56 244 16.0 32.0 0.00 0.14 0.08 74 1017.9
20260507093034 57 245 16.0 31.0 0.00 0.14 0.08 74 1018.0
20260507091531 57 247 15.0 27.0 0.00 0.14 0.08 74 1018.1
20260507090033 57 247 15.0 29.0 0.00 0.14 0.08 74 1018.3
20260507084530 57 250 14.0 28.0 0.00 0.14 0.08 75 1018.2
20260507083106 57 252 15.0 35.0 0.00 0.14 0.08 75 1018.0
20260507081536 57 252 20.0 45.0 0.02 0.14 0.08 74 1017.7
20260507080030 58 245 18.0 57.0 0.08 0.14 0.08 73 1017.5
20260507074529 58 245 19.0 31.0 0.08 0.14 0.08 73 1017.2
20260507073106 59 247 25.0 48.0 0.08 0.14 0.06 72 1017.0
20260507071532 59 244 28.0 53.0 0.06 0.12 0.00 72 1017.0
20260507070030 59 243 25.0 42.0 0.00 0.06 0.00 72 1017.2